Temperature
18 18 18 18 18 18 18 18 18 18 18 18 18 18 18 17 17 17 17 17 17 17 17 17 17 17 17 17 17 17 17 16 16 16 16 16 16 16 16 16 16 16 16
18 18 18 18 18 18 18 18 18 18 18 18 18 17 17 17 17 17 17 17 17 17 17 17 17 17 17 17 17 17 17 17 16 16 16 16 16 16 16 16 16 16 16
18 18 18 18 18 18 18 18 18 18 18 18 18 17 17 17 17 17 17 17 17 17 17 17 17 16 17 17 17 17 17 16 16 16 16 16 16 16 16 16 16 16 16
18 18 18 18 18 18 18 18 18 18 17 17 17 17 17 17 17 17 17 17 17 17 17 17 17 17 17 17 16 16 16 16 16 16 16 16 16 16 16 16 16 16 15
18 18 18 18 18 18 18 18 18 18 17 17 17 17 17 17 17 17 17 17 17 17 17 17 17 17 17 17 16 16 16 16 16 16 16 16 16 16 16 16 16 16 15
18 18 18 18 18 18 18 18 18 17 17 17 17 17 17 17 17 17 17 17 17 17 17 17 17 17 17 17 17 16 16 16 16 16 16 16 16 16 16 16 16 16 15
18 18 18 18 18 18 18 18 18 17 17 17 17 17 17 17 17 17 17 17 17 17 17 17 17 17 17 17 17 16 16 16 16 16 16 16 16 16 16 16 16 16 15
18 18 18 18 18 18 18 18 18 17 17 17 17 17 17 17 17 17 17 17 17 17 17 17 17 17 17 17 17 16 16 16 16 16 16 16 16 16 16 15 15 15 15
18 18 18 18 18 18 18 18 18 18 17 17 17 17 17 17 17 17 17 17 17 17 17 17 17 17 16 16 16 16 16 16 16 16 16 16 16 16 15 15 15 15 15
18 18 18 18 18 18 18 18 18 18 17 17 17 17 17 17 17 17 17 17 17 17 17 17 17 16 16 16 16 16 16 16 16 16 16 16 16 16 15 15 15 15 15
18 18 18 18 18 18 18 17 17 17 17 17 17 17 17 17 17 17 16 17 17 17 17 17 16 16 16 16 16 16 16 16 16 16 16 16 16 15 15 15 15 15 15
18 18 18 18 18 18 18 17 17 17 17 17 17 17 17 17 17 17 17 17 17 17 17 16 16 16 16 16 16 16 16 16 16 16 16 15 15 15 15 15 15 15 15
18 18 18 18 18 18 17 17 17 17 17 17 17 17 17 17 17 17 17 17 16 16 16 16 16 16 16 16 16 16 16 16 16 16 16 15 15 15 15 15 15 15 15
18 18 18 18 18 18 17 17 17 17 17 17 17 17 17 17 17 17 17 17 16 16 16 16 16 16 16 16 16 16 16 16 16 16 16 15 15 15 15 15 15 15 15
18 18 18 18 18 17 17 17 17 17 17 17 17 17 17 17 17 17 16 16 16 16 16 16 16 16 16 16 16 16 16 16 16 16 16 15 15 15 15 15 15 15 15
18 18 18 18 17 17 17 17 17 17 17 17 17 17 17 17 17 17 16 16 16 16 16 16 16 16 16 16 16 16 16 16 16 16 15 15 15 15 15 15 15 15 15
18 18 18 17 17 17 17 17 17 17 17 17 17 17 17 17 17 16 16 16 16 16 16 16 16 16 16 16 16 16 16 16 16 16 15 15 15 15 15 15 15 15 14
18 17 17 17 17 17 17 17 17 17 16 16 16 16 16 16 16 16 16 16 16 16 16 16 16 16 16 16 16 16 16 15 15 15 15 15 15 15 15 15 15 14 14
17 17 17 17 17 17 17 17 17 17 16 16 16 16 16 16 16 16 16 16 16 16 16 16 16 16 16 16 16 16 16 15 15 15 15 15 15 15 15 15 15 14 14
17 17 17 17 17 17 17 17 16 16 16 16 16 16 16 16 16 16 16 16 16 16 16 16 15 16 16 16 15 15 15 15 15 15 15 15 15 15 15 15 15 14 14
17 17 17 17 17 17 16 16 16 16 16 16 16 16 16 16 16 16 16 16 16 16 15 15 15 15 15 15 15 15 15 15 15 15 15 15 15 15 15 15 14 14 14
17 17 17 16 16 16 16 16 16 16 16 16 16 16 16 16 16 16 16 16 16 15 15 15 15 15 15 15 15 15 15 15 14 15 15 15 15 15 15 14 14 14 14
17 16 16 16 16 16 16 16 16 16 16 16 16 16 16 16 16 16 16 15 15 15 15 15 15 15 15 15 15 15 15 14 15 15 14 14 14 14 14 14 14 14 14
16 16 16 16 16 16 16 16 16 16 16 16 16 16 16 16 16 16 15 15 15 15 15 15 15 15 15 15 15 14 14 14 14 14 14 14 14 14 14 14 14 14 14
16 16 16 16 16 16 16 16 15 15 16 16 16 16 16 16 15 15 15 15 15 15 15 15 15 15 15 14 14 14 14 14 14 14 14 14 14 14 14 14 14 14 14
16 16 15 15 16 16 15 15 15 15 15 15 16 15 15 15 15 15 15 15 15 15 15 15 15 15 15 14 14 14 14 14 14 14 14 14 14 13 13 14 14 14 13
Wind_Speed
0 1 1 1 1 0 0 0 1 1 2 2 2 2 2 2 2 2 3 4 6 6 7 8 10 10 11 11 11 11 11 10 9 9 8 8 8 8 8 8 8 8 7
1 0 1 1 1 0 0 1 1 1 1 1 1 1 2 2 2 2 2 3 4 6 7 7 8 9 10 11 11 11 11 10 9 9 9 8 8 8 8 8 8 8 7
2 2 1 0 0 0 1 1 1 1 1 2 1 1 1 2 2 2 2 2 3 4 5 6 7 8 9 10 11 11 11 11 11 10 9 9 8 8 8 8 7 7 7
3 2 1 1 1 1 1 1 1 1 1 2 1 1 1 1 1 2 2 2 2 2 2 4 6 7 8 9 10 10 10 10 10 10 10 9 9 9 8 8 8 8 7
2 2 1 1 1 1 1 1 1 1 1 1 1 1 1 0 1 1 1 1 2 2 2 2 4 5 7 8 8 9 8 9 9 9 10 10 10 9 9 8 8 7 7
2 2 1 1 1 2 1 1 2 1 1 1 2 2 2 1 1 1 1 1 1 1 2 2 2 2 4 6 7 7 7 8 8 8 9 9 9 9 9 8 7 7 7
2 2 2 1 2 2 2 2 2 2 1 1 2 2 2 3 2 1 0 1 1 1 1 2 2 1 1 3 5 7 8 8 8 9 9 9 9 9 8 8 7 7 6
2 3 2 2 2 2 2 2 2 1 1 1 2 2 1 2 2 1 1 1 1 1 1 1 2 2 2 2 3 5 7 8 8 8 9 9 9 9 8 8 8 7 7
1 2 2 2 2 2 2 2 3 3 1 1 1 2 2 1 1 1 1 0 0 1 1 1 2 2 3 3 2 3 5 5 7 8 8 9 9 8 8 8 8 7 7
1 1 2 2 2 2 2 2 2 2 3 2 1 1 1 2 1 0 1 1 0 0 1 1 1 2 2 3 3 4 5 5 6 6 6 7 8 8 8 8 8 8 7
1 1 2 2 2 2 2 2 2 2 2 2 2 1 1 1 1 1 1 1 1 1 1 1 1 1 2 3 4 5 6 6 6 6 6 7 7 8 8 8 8 8 8
1 1 1 2 2 2 2 2 2 3 2 2 2 2 2 2 2 2 2 1 1 1 1 1 1 2 3 3 5 6 6 6 6 7 7 8 8 7 7 8 8 8 8
2 2 2 2 2 2 2 2 2 2 2 3 2 2 2 2 2 2 2 1 1 1 1 1 2 2 3 3 4 6 7 7 7 7 8 8 8 7 7 7 7 7 7
3 2 2 2 2 2 3 3 2 2 2 2 2 2 2 2 2 2 3 3 1 1 1 2 1 3 3 4 5 6 6 7 8 8 8 8 7 7 7 7 7 6 6
2 3 2 2 2 2 3 3 2 2 2 2 2 2 2 1 2 2 2 3 3 2 3 3 2 3 4 4 5 5 6 7 8 8 8 8 8 8 7 7 7 7 7
2 2 2 2 2 2 3 3 2 2 2 2 2 2 1 1 2 2 2 2 2 3 3 2 3 2 3 3 5 5 6 7 8 9 9 9 8 8 8 8 8 8 8
2 2 2 2 2 3 3 3 3 3 3 2 2 2 2 2 2 2 2 2 2 2 3 2 2 2 3 3 3 4 5 6 6 9 10 10 9 9 9 9 9 9 9
2 2 2 2 3 3 3 4 4 4 4 4 3 3 3 2 3 2 2 3 3 3 3 3 2 2 3 3 3 3 4 5 6 8 10 10 10 10 10 10 10 10 10
2 2 2 2 3 3 3 3 4 4 5 5 5 5 4 3 3 3 3 3 3 3 3 3 2 2 2 2 2 2 3 3 4 6 8 9 10 11 11 11 11 11 11
2 3 3 3 3 3 3 3 3 4 4 4 5 5 5 5 5 4 4 4 3 3 2 2 2 2 2 1 2 2 2 2 3 3 4 6 8 10 11 12 12 12 12
3 3 3 3 3 3 3 3 4 4 4 4 4 5 5 6 6 5 4 4 4 3 3 2 2 2 2 2 3 3 3 2 3 3 3 4 4 5 7 9 11 12 13
3 3 3 3 3 3 4 5 4 4 4 5 5 5 5 6 6 6 5 5 6 5 5 4 3 3 4 4 3 3 3 2 3 2 3 4 3 4 5 6 9 11 12
3 3 3 4 4 5 5 5 6 4 5 5 6 5 5 5 5 4 4 4 5 6 7 5 5 5 5 5 4 4 4 5 5 3 3 3 3 4 5 6 9 11 11
4 4 4 4 4 5 6 6 6 5 5 6 6 6 6 5 5 5 4 3 4 4 5 5 6 6 6 5 5 5 5 4 3 3 4 4 3 4 4 5 7 10 10
4 4 4 5 5 6 7 7 5 4 5 6 6 6 6 6 7 7 5 5 4 4 5 6 7 6 6 6 5 3 3 3 4 4 4 4 3 3 3 3 5 7 8
5 4 4 5 5 6 7 8 7 4 5 5 5 5 7 8 8 7 6 5 6 5 4 3 3 4 4 5 6 6 5 5 4 4 4 4 3 2 2 2 2 3 4
Wind_Direction
41 2 354 7 14 15 79 71 82 88 93 109 134 141 161 179 181 177 196 209 209 208 207 205 197 195 192 190 189 187 187 186 185 184 186 192 194 193 195 197 195 193 191
183 203 16 12 350 274 179 140 114 85 76 94 105 137 166 180 184 169 182 209 219 219 215 211 203 200 195 192 192 192 192 191 191 191 192 195 197 200 202 200 195 190 187
188 182 152 115 297 180 132 106 73 82 96 94 88 111 161 171 169 172 184 201 217 222 218 212 212 212 205 199 196 198 200 201 201 200 196 194 192 192 192 195 192 192 195
195 181 159 203 221 153 129 130 112 92 85 84 71 42 72 124 147 168 171 194 188 200 224 221 216 216 214 212 204 202 203 203 204 199 193 192 191 189 188 192 195 196 201
193 172 181 217 186 132 140 157 114 119 116 95 74 56 51 79 180 164 170 191 186 189 213 238 229 221 219 217 211 207 205 201 196 196 196 196 194 193 194 197 199 202 203
190 171 171 204 161 140 137 137 122 115 137 135 98 65 45 48 92 144 196 186 190 202 211 222 231 248 232 217 203 198 198 194 191 191 194 195 194 193 193 194 195 199 203
192 180 187 183 162 161 174 158 139 123 119 112 89 55 30 45 71 70 156 160 195 197 176 197 209 218 231 200 191 188 192 193 193 190 192 192 190 187 187 189 191 193 199
209 193 185 188 171 165 157 157 145 137 156 121 118 111 34 14 20 37 80 152 215 182 185 195 190 190 183 163 165 182 190 194 189 188 191 191 191 191 192 196 199 200 202
223 187 169 181 184 178 191 197 177 164 173 125 107 133 138 204 311 3 29 58 113 161 222 183 172 185 181 168 177 179 180 183 186 192 193 193 192 194 197 200 203 204 207
217 180 157 185 184 181 194 204 176 172 160 170 135 94 132 148 150 326 352 10 7 182 224 201 187 180 170 171 185 190 193 194 195 198 197 197 197 199 201 205 209 212 215
273 197 172 183 187 182 189 185 165 170 166 168 166 152 115 85 121 160 237 303 343 313 251 231 210 196 189 185 191 198 200 199 202 208 210 209 209 207 208 212 217 220 221
293 266 206 193 192 180 181 179 167 172 176 165 166 162 157 164 176 171 197 228 279 293 282 251 220 218 209 205 210 208 206 206 211 215 219 219 219 217 220 223 224 225 225
276 262 236 212 201 194 188 177 168 178 176 177 187 191 184 190 172 170 170 189 249 297 297 261 239 226 220 216 220 218 217 215 217 219 222 223 223 222 223 224 227 228 228
259 254 228 216 204 194 191 179 178 187 178 184 194 190 189 191 180 176 172 170 198 285 282 263 244 228 226 221 226 221 223 221 220 220 222 223 223 222 224 225 225 227 227
253 240 221 212 205 194 191 179 181 184 174 180 182 184 202 209 191 195 185 181 180 209 245 246 236 228 220 221 221 217 221 226 223 222 221 221 221 221 221 223 226 227 225
256 242 233 220 212 202 195 183 181 175 166 177 177 177 202 220 201 200 196 199 199 197 229 239 235 236 223 229 219 222 231 232 232 230 225 220 219 219 222 222 225 226 225
243 231 221 220 220 217 199 182 191 189 185 192 190 191 221 214 209 209 203 202 202 193 224 261 255 245 219 229 231 230 237 236 241 234 227 225 225 225 226 227 227 227 224
249 238 216 209 224 221 202 193 203 201 198 207 214 211 232 222 215 212 208 213 211 204 207 242 255 237 236 233 231 232 242 242 242 240 232 229 230 230 231 230 228 226 224
246 237 218 215 229 219 209 208 207 208 210 214 216 218 227 218 226 219 213 213 214 208 203 218 247 242 249 243 233 242 244 251 252 249 239 235 234 233 232 232 231 228 227
234 234 229 226 223 213 210 211 209 217 218 221 221 224 226 219 221 217 217 214 207 199 195 207 238 250 251 244 216 236 253 249 253 257 247 242 239 237 235 233 232 231 230
241 237 232 236 235 218 215 207 210 218 220 228 233 233 234 229 224 216 218 209 202 202 198 205 223 230 234 223 221 215 235 251 254 239 245 250 242 240 239 237 234 232 232
247 242 237 231 234 239 238 222 214 221 223 227 236 242 241 232 228 225 222 206 197 198 202 202 215 228 237 232 221 215 219 230 256 220 225 256 236 243 246 240 237 234 232
249 249 244 236 243 250 242 236 231 226 229 234 235 234 237 233 215 216 218 214 215 219 208 203 218 229 231 226 213 221 221 227 238 219 205 249 243 254 255 248 241 233 231
247 247 247 242 243 253 245 241 238 236 240 240 236 229 226 231 220 203 203 218 231 232 222 217 226 235 240 231 218 220 225 237 258 234 205 237 241 252 264 256 247 233 230
252 251 251 244 245 258 250 244 235 238 245 248 244 234 225 227 227 203 199 221 242 256 250 236 235 244 246 237 215 203 208 224 255 246 208 223 240 253 262 257 250 237 232
254 256 258 254 249 253 250 243 230 229 245 255 255 245 231 229 229 210 210 218 237 249 249 262 259 259 250 238 213 209 214 224 247 252 210 204 221 216 253 253 249 236 226
Height
1527 1527 1527 1528 1528 1529 1529 1530 1530 1531 1532 1532 1533 1534 1534 1535 1535 1536 1536 1536 1536 1537 1537 1537 1538 1540 1542 1544 1545 1547 1549 1550 1552 1554 1556 1557 1559 1560 1561 1562 1564 1565 1566
1528 1528 1528 1528 1529 1529 1529 1530 1530 1531 1532 1532 1533 1533 1534 1535 1536 1536 1536 1536 1536 1536 1537 1537 1538 1539 1541 1542 1544 1546 1548 1549 1551 1553 1554 1556 1557 1559 1560 1561 1562 1563 1565
1528 1528 1528 1528 1529 1529 1530 1530 1531 1531 1532 1532 1533 1533 1534 1535 1536 1536 1536 1536 1536 1536 1537 1537 1537 1539 1540 1542 1543 1544 1546 1548 1550 1551 1553 1554 1556 1557 1558 1559 1560 1562 1563
1528 1528 1528 1529 1529 1529 1530 1530 1530 1531 1531 1532 1533 1534 1534 1535 1535 1536 1536 1536 1536 1536 1537 1537 1537 1538 1539 1540 1542 1543 1545 1546 1548 1549 1551 1553 1554 1555 1556 1558 1559 1560 1561
1529 1529 1529 1529 1529 1529 1529 1530 1530 1531 1531 1532 1533 1533 1534 1534 1535 1535 1535 1535 1536 1536 1536 1537 1537 1538 1538 1539 1541 1542 1543 1545 1546 1548 1549 1551 1552 1553 1555 1556 1557 1558 1559
1529 1529 1529 1529 1529 1529 1529 1530 1530 1531 1531 1532 1532 1533 1533 1534 1534 1535 1535 1535 1536 1536 1536 1537 1537 1538 1538 1539 1539 1541 1542 1543 1544 1546 1547 1549 1550 1552 1553 1554 1555 1556 1557
1529 1528 1528 1529 1529 1529 1529 1530 1530 1531 1531 1532 1532 1533 1533 1534 1534 1534 1535 1535 1535 1536 1536 1537 1537 1537 1537 1538 1539 1540 1541 1542 1543 1544 1546 1547 1549 1550 1551 1552 1553 1554 1555
1528 1528 1528 1529 1529 1529 1529 1530 1530 1531 1531 1532 1532 1532 1533 1534 1533 1534 1534 1534 1535 1536 1536 1537 1537 1537 1537 1538 1538 1539 1540 1541 1541 1543 1544 1545 1547 1548 1549 1550 1551 1552 1553
1528 1527 1527 1528 1528 1528 1529 1529 1530 1530 1531 1531 1531 1532 1533 1533 1533 1534 1534 1534 1535 1535 1536 1536 1536 1536 1537 1538 1538 1538 1539 1539 1540 1541 1542 1544 1545 1546 1547 1548 1549 1550 1550
1527 1527 1527 1527 1527 1527 1528 1529 1529 1529 1530 1530 1531 1532 1533 1533 1533 1533 1534 1534 1534 1535 1535 1535 1536 1536 1536 1537 1537 1538 1538 1538 1539 1539 1540 1541 1543 1544 1545 1546 1547 1547 1548
1526 1526 1526 1526 1526 1526 1527 1528 1528 1529 1529 1530 1530 1531 1531 1532 1533 1533 1533 1533 1534 1534 1534 1534 1535 1535 1535 1536 1536 1536 1537 1537 1537 1538 1538 1539 1540 1542 1543 1544 1544 1545 1545
1525 1525 1525 1525 1525 1525 1526 1526 1527 1527 1528 1529 1529 1530 1530 1531 1531 1532 1532 1532 1532 1533 1533 1533 1533 1534 1534 1534 1534 1535 1535 1535 1535 1536 1537 1538 1538 1540 1540 1541 1542 1542 1543
1524 1524 1524 1524 1524 1524 1525 1525 1526 1526 1527 1527 1528 1528 1529 1530 1530 1531 1531 1531 1531 1531 1531 1531 1532 1532 1532 1532 1533 1533 1533 1533 1534 1534 1535 1536 1537 1537 1538 1539 1539 1540 1540
1523 1523 1523 1523 1523 1524 1524 1524 1525 1525 1525 1526 1526 1527 1528 1528 1529 1529 1530 1530 1529 1529 1529 1529 1530 1530 1530 1531 1531 1531 1531 1531 1532 1532 1533 1533 1534 1535 1536 1536 1537 1537 1537
1522 1522 1521 1522 1522 1522 1522 1522 1523 1523 1524 1524 1525 1525 1526 1526 1527 1527 1528 1528 1529 1527 1527 1527 1528 1528 1528 1529 1529 1529 1529 1530 1530 1530 1531 1531 1532 1532 1533 1534 1534 1534 1534
1521 1520 1520 1520 1520 1520 1520 1520 1521 1521 1522 1522 1523 1523 1524 1524 1525 1525 1525 1526 1526 1526 1525 1525 1526 1526 1526 1526 1527 1527 1528 1528 1528 1528 1528 1529 1529 1530 1530 1530 1531 1531 1531
1519 1518 1518 1518 1518 1518 1518 1518 1519 1519 1519 1520 1520 1521 1521 1522 1522 1522 1523 1523 1523 1524 1523 1523 1524 1524 1524 1524 1524 1525 1525 1525 1525 1526 1526 1526 1526 1527 1527 1527 1528 1528 1528
1517 1517 1516 1516 1516 1516 1516 1516 1517 1517 1517 1517 1518 1519 1519 1519 1520 1520 1520 1520 1521 1521 1521 1521 1521 1521 1521 1521 1522 1522 1522 1522 1523 1523 1523 1523 1523 1524 1524 1524 1525 1525 1525
1515 1515 1514 1514 1514 1513 1514 1514 1514 1514 1515 1515 1516 1516 1517 1517 1517 1517 1517 1518 1518 1518 1518 1518 1518 1518 1518 1518 1518 1519 1519 1519 1519 1520 1520 1520 1520 1520 1521 1521 1521 1521 1522
1513 1512 1512 1512 1511 1511 1511 1512 1512 1512 1512 1513 1513 1513 1514 1514 1514 1515 1515 1515 1515 1515 1515 1515 1515 1515 1515 1515 1515 1515 1516 1516 1516 1517 1517 1517 1517 1517 1517 1517 1517 1518 1518
1510 1510 1510 1509 1509 1509 1509 1509 1509 1510 1510 1510 1510 1510 1511 1511 1511 1512 1512 1512 1512 1512 1512 1511 1511 1511 1511 1511 1511 1512 1512 1512 1513 1513 1513 1513 1513 1513 1513 1513 1513 1513 1514
1508 1507 1507 1506 1506 1506 1506 1507 1507 1507 1507 1507 1507 1507 1507 1507 1508 1508 1508 1508 1508 1508 1508 1508 1508 1508 1508 1508 1508 1508 1508 1508 1508 1509 1509 1509 1509 1508 1508 1509 1509 1509 1509
1505 1504 1504 1504 1503 1503 1503 1503 1503 1503 1503 1503 1503 1503 1503 1504 1504 1504 1504 1504 1505 1505 1505 1505 1505 1504 1504 1505 1505 1505 1505 1505 1504 1505 1505 1504 1504 1504 1504 1504 1505 1505 1505
1502 1501 1500 1500 1500 1500 1500 1500 1500 1499 1499 1499 1499 1499 1500 1500 1500 1500 1500 1500 1500 1500 1501 1501 1501 1500 1500 1500 1500 1501 1501 1501 1501 1500 1500 1500 1499 1500 1500 1500 1500 1500 1500
1498 1498 1497 1497 1496 1496 1496 1496 1496 1496 1495 1495 1495 1495 1496 1496 1496 1496 1497 1496 1496 1496 1497 1496 1496 1496 1496 1496 1496 1496 1496 1496 1495 1495 1496 1495 1495 1495 1495 1495 1495 1495 1495
1494 1494 1494 1493 1493 1492 1492 1492 1492 1491 1491 1491 1491 1491 1491 1492 1492 1492 1492 1492 1492 1492 1492 1492 1492 1492 1492 1491 1491 1492 1492 1492 1491 1490 1490 1490 1490 1490 1489 1489 1490 1490 1490